Location: Alfortville
(48.8058°N, 2.4204°E)
Time: 08:42:09
(UTC+00:00)

USA 229 - Pass Details

Date: 24 October 2021
Orbit: 946 x 1266 km, 63.4° (Epoch: 25 November)

Event Time Altitude Azimuth Distance (km) Brightness Sun altitude
Rises 19:14:43 0° 227° (SW) 3,645 7.0 -25.5°
Reaches altitude 10° 19:17:13 10° 229° (SW) 2,727 6.3 -25.9°
Maximum altitude 19:23:37 74° 314° (NW) 1,066 3.7 -26.9°
Enters shadow 19:26:59 32° 34° (NNE) 1,724 4.6 -27.4°
